Location: Carrières
(48.9495°N, 2.0407°E)
Time: 20:47:59
(UTC+00:00)

Transit 2A - Pass Details

Date: 28 April 2024
Orbit: 594 x 957 km, 66.7° (Epoch: 18 May)

Event Time Altitude Azimuth Distance (km) Brightness Sun altitude
Rises 05:15:10 0° 229° (SW) 2,871 8.4 5.3°
Reaches altitude 10° 05:17:24 10° 235° (SW) 2,000 7.6 5.6°
Maximum altitude 05:21:47 52° 312° (NW) 826 6.1 6.3°
Drops below altitude 10° 05:26:36 10° 29° (NNE) 2,192 9.1 7.1°
Sets 05:29:09 0° 35° (NE) 3,178 10.0 7.5°
